Regional Weather Roundup
Issued by NWS

Home | Current Version | Previous Version | Graphics & Text | Print | Product List | Glossary On
Versions: 1 2 3 4 5 6 7 8 9 10 11 12 13 14 15 16 17 18 19 20 21 22 23 24 25 26 27 28 29 30 31 32 33 34 35 36 37 38 39 40 41 42 43 44 45 46 47 48 49 50
000
ASUS43 KBIS 261410
RWRND

NORTH DAKOTA REGIONAL WEATHER ROUNDUP
NATIONAL WEATHER SERVICE BISMARCK ND
900 AM CDT SAT JUL 26 2014

NOTE: "FAIR" INDICATES FEW OR NO CLOUDS BELOW 12,000 FEET WITH NO
SIGNIFICANT WEATHER AND/OR OBSTRUCTIONS TO VISIBILITY.


NDZ001>003-009>011-017-261500-
NORTHWEST NORTH DAKOTA

CITY           SKY/WX    TMP DP  RH WIND       PRES   REMARKS
WILLISTON      SUNNY     62  51  67 W25G33    29.90R
MINOT          MOSUNNY   62  51  67 W20G28    29.81R
MINOT AFB      MOSUNNY   62  55  76 W20G25    29.80R
$$

NDZ018>021-031>035-040>046-261500-
SOUTHWEST NORTH DAKOTA

CITY           SKY/WX    TMP DP  RH WIND       PRES   REMARKS
BISMARCK       SUNNY     66  51  58 NW15G22   29.90R
DICKINSON      SUNNY     62  49  62 W22       29.95R
GARRISON         N/A     62  53  72 W17G23    29.87R
HETTINGER ARPT SUNNY     64  47  53 W15       29.99R
$$

NDZ004>008-012>016-024-026-027-054-261500-
NORTHEAST NORTH DAKOTA

CITY           SKY/WX    TMP DP  RH WIND       PRES   REMARKS
GRAND FORKS    SUNNY     71  59  65 SW14      29.73F
GRND FRKS AFB  SUNNY     71  61  69 W13       29.74S
DEVILS LAKE    SUNNY     64  52  63 W22G30    29.77S
$$

NDZ022-023-025-028>030-036>039-047>053-261500-
SOUTHEAST NORTH DAKOTA

CITY           SKY/WX    TMP DP  RH WIND       PRES   REMARKS
FARGO          SUNNY     71  58  63 SW13      29.80R
JAMESTOWN      SUNNY     69  58  67 W12       29.83R
$$



USA.gov is the U.S. government's official web portal to all federal, state and local government web resources and services.